This demonstration page uses our WeatherBlox Daily Observations layout. Learn more.

Left ArrowRight Arrow

47.50024, -111.30081

Hourly Observations for April 24, 2022

Temp ( °F °C ) Dew Point ( °F °C ) Humidity (%) Winds ( mph kmh ) Pressure ( in mb ) Visibility ( mi km ) Precip ( " mm )
12:53 am 00:53 Clear 29 -1.7 25 -3.9 85 85 WNW 5 7 30.29 1026 10 16 0.00 0.00
1:53 am 01:53 Clear 29 -1.7 24 -4.4 82 82 WNW 5 7 30.28 1025 10 16 0.00 0.00
2:53 am 02:53 Clear 27 -2.8 23 -5 85 85 W 7 11 30.29 1026 10 16 0.00 0.00
3:53 am 03:53 Clear 26 -3.3 23 -5 88 88 SW 7 11 30.31 1026 10 16 0.00 0.00
4:53 am 04:53 Clear 26 -3.3 23 -5 88 88 SSW 9 15 30.30 1026 10 16 0.00 0.00
5:53 am 05:53 Clear 27 -2.8 24 -4.4 89 89 SW 10 17 30.31 1026 10 16 0.00 0.00
6:53 am 06:53 Sunny 28 -2.2 25 -3.9 88 88 SW 10 17 30.32 1027 10 16 0.00 0.00
7:53 am 07:53 Sunny 33 0.6 29 -1.7 85 85 SW 7 11 30.32 1027 10 16 0.00 0.00
8:53 am 08:53 Sunny 39 3.9 31 -0.6 73 73 SW 9 15 30.32 1027 10 16 0.00 0.00
9:53 am 09:53 Sunny 43 6.1 29 -1.7 58 58 WSW 9 15 30.33 1027 10 16 0.00 0.00
10:53 am 10:53 Sunny 48 8.9 27 -2.8 44 44 WSW 6 9 30.32 1027 10 16 0.00 0.00
11:53 am 11:53 Sunny 50 10 23 -5 35 35 undefined N/A 30.31 1026 10 16 0.00 0.00
12:53 pm 12:53 Mostly Sunny 52 11.1 21 -6.1 30 30 VRB 5 7 30.31 1026 10 16 0.00 0.00
1:53 pm 13:53 Partly Cloudy 50 10 20 -6.7 30 30 VRB 3 6 30.30 1026 10 16 0.00 0.00
2:53 pm 14:53 Mostly Cloudy 54 12.2 20 -6.7 26 26 S 5 7 30.28 1025 10 16 0.00 0.00
3:53 pm 15:53 Sunny 53 11.7 19 -7.2 26 26 SSW 3 6 30.27 1025 10 16 0.00 0.00
4:53 pm 16:53 Mostly Sunny 55 12.8 17 -8.3 22 22 VRB 5 7 30.25 1024 10 16 0.00 0.00
5:53 pm 17:53 Sunny 55 12.8 18 -7.8 23 23 VRB 6 9 30.24 1024 10 16 0.00 0.00
6:53 pm 18:53 Sunny 54 12.2 19 -7.2 25 25 SE 10 17 30.23 1024 10 16 0.00 0.00
7:53 pm 19:53 Sunny 49 9.4 22 -5.6 35 35 SE 5 7 30.23 1024 10 16 0.00 0.00
8:53 pm 20:53 Mostly Clear 45 7.2 24 -4.4 44 44 ESE 8 13 30.23 1024 10 16 0.00 0.00
9:53 pm 21:53 Clear 43 6.1 24 -4.4 47 47 ESE 9 15 30.22 1024 10 16 0.00 0.00
10:53 pm 22:53 Clear 41 5 23 -5 49 49 SE 10 17 30.21 1023 10 16 0.00 0.00
11:53 pm 23:53 Clear 45 7.2 23 -5 42 42 S 16 26 30.18 1022 10 16 0.00 0.00

Powered by AerisWeather